[[{"header":{"parameterUnit":"m.s-1","parameterCategory":1,"la1":30.2991,"la2":30.254,"lo1":-89.0895,"lo2":-89.0444,"dy":0.0017,"dx":0.0017,"nx":28,"ny":28,"refTime":"2024-06-13T03:00:00:Z","depth":0,"parameterNumber":2,"parameterNumberName":"U-component_of_WINDS"},"data":[0,0,0,0,0,0,0,0,0,0,0,0,0,0,0,0,0,0,0,0,0,0,0,0,0,0,0,0,0,0,0,0,0,0,0,0,0,0,0,0,0,0,0,0,0,0,0,0,0,0,0,0,0,0,0,0,0,0,-2.3381,-2.338,0,-2.332,-2.3319,-2.3318,-2.3247,-2.3246,-2.3245,-2.3244,-2.3181,-2.3181,-2.318,0,0,0,0,0,0,0,0,0,0,0,0,0,-2.3436,-2.3435,-2.3381,-2.338,-2.3379,-2.332,-2.3319,-2.3318,-2.3247,-2.3246,-2.3245,-2.3243,-2.3182,-2.3181,-2.318,0,0,0,0,0,0,0,0,0,0,0,0,0,-2.3397,-2.3435,-2.3381,-2.3337,-2.3332,-2.332,-2.3319,-2.3318,-2.3248,-2.3246,-2.3244,-2.3243,-2.3182,-2.3181,-2.318,-2.3207,0,0,-2.3177,-2.3177,0,0,0,0,0,0,0,0,-2.34,-2.3395,-2.3344,-2.334,-2.3335,-2.3289,-2.3316,-2.3281,-2.3248,-2.328,-2.3244,-2.3242,-2.3219,-2.3215,-2.3207,-2.3204,-2.3201,-2.3177,-2.3176,-2.3176,-2.3176,0,0,0,0,0,0,0,-2.3402,-2.3398,-2.3357,-2.3343,-2.3338,-2.332,-2.3313,-2.3309,-2.3259,-2.3277,-2.3271,-2.3265,-2.3216,-2.3208,-2.3205,-2.32,-2.3177,-2.3176,-2.3176,-2.3175,-2.3217,-2.3218,0,0,0,0,0,0,-2.3412,-2.34,-2.3359,-2.3355,-2.3364,-2.332,-2.3312,-2.3306,-2.3259,-2.325,-2.3267,-2.3262,-2.321,-2.3206,-2.3202,-2.3231,-2.3176,-2.3175,-2.3174,-2.3215,-2.3217,-2.3219,0,0,0,0,0,0,-2.3413,-2.3409,-2.3361,-2.3376,-2.3369,-2.3321,-2.3314,-2.3305,-2.3297,-2.3251,-2.3242,-2.3268,-2.3209,-2.3204,-2.3206,-2.3228,-2.3175,-2.3174,-2.3213,-2.3216,-2.3218,-2.3289,0,0,0,0,0,0,-2.3415,-2.341,-2.3419,-2.3377,-2.3368,-2.3366,-2.3316,-2.3305,-2.3296,-2.3289,-2.325,-2.3242,-2.3207,-2.3208,-2.3205,-2.3226,-2.3173,-2.3211,-2.3214,-2.3217,-2.3285,-2.3294,-2.3302,0,0,0,0,0,-2.3417,-2.3441,-2.342,-2.3415,-2.3379,-2.3368,-2.3363,-2.3323,-2.3298,-2.3307,-2.3278,-2.3243,-2.3226,-2.3209,-2.3205,-2.3226,-2.3209,-2.3213,-2.3217,-2.3281,-2.3292,-2.3301,0,0,0,0,0,0,-2.3487,-2.3435,-2.3411,-2.3422,-2.34,-2.3356,-2.3366,-2.3335,-2.332,-2.3314,-2.3265,-2.3257,-2.3266,-2.3246,-2.3228,-2.3249,-2.3213,-2.3216,-2.3262,-2.3273,-2.3281,-2.3286,-2.3172,0,0,0,0,0,-2.3504,-2.3499,-2.3453,-2.3468,-2.3458,-2.3414,-2.3408,-2.3379,-2.3354,-2.3344,-2.3315,-2.3292,-2.3282,-2.3276,-2.3263,-2.3281,-2.3272,-2.3293,-2.3302,-2.3309,-2.3313,-2.3322,-2.3331,-2.3231,-2.3231,-2.3231,0,0,-2.3538,-2.3509,-2.3509,-2.3481,-2.346,-2.3457,-2.3407,-2.3405,-2.3402,-2.3344,-2.3345,-2.3323,-2.3294,-2.3305,-2.3308,-2.3288,-2.3338,-2.3314,-2.332,-2.332,-2.3326,-2.3336,-2.3344,-2.3234,-2.3234,-2.3233,0,0,-2.3599,-2.3576,-2.3586,-2.3567,-2.3537,-2.3508,-2.351,-2.3471,-2.3454,-2.3454,-2.3411,-2.3407,-2.3389,-2.3371,-2.336,-2.3415,-2.3383,-2.3412,-2.3457,-2.3466,-2.3474,-2.3481,-2.3502,-2.351,-2.3416,-2.3416,-2.3416,0,-2.3646,-2.3639,-2.3595,-2.3596,-2.3586,-2.3533,-2.3543,-2.3526,-2.3494,-2.3488,-2.3466,-2.3444,-2.3421,-2.3427,-2.3441,-2.3433,-2.3435,-2.3417,-2.3476,-2.3483,-2.3488,-2.3508,-2.3516,-2.342,-2.3419,-2.3419,-2.3418,0,-2.3698,-2.3694,-2.3706,-2.3676,-2.3666,-2.3672,-2.363,-2.3625,-2.3597,-2.3571,-2.3572,-2.3542,-2.3524,-2.3523,-2.3495,-2.3526,-2.3514,-2.3485,-2.3448,-2.3502,-2.352,-2.3527,-2.3425,-2.3424,-2.3423,-2.3422,0,0,-2.3802,-2.3749,-2.3754,-2.374,-2.3703,-2.3699,-2.3703,-2.3685,-2.3682,-2.3662,-2.3664,-2.3651,-2.3624,-2.3611,-2.3581,-2.3589,-2.3636,-2.3558,-2.3557,-2.3575,-2.3669,-2.3692,-2.3702,-2.3614,-2.3615,-2.3616,-2.3672,0,-2.3858,-2.3861,-2.3822,-2.3836,-2.3832,-2.3782,-2.3785,-2.3763,-2.3738,-2.3731,-2.3703,-2.3696,-2.366,-2.3652,-2.3658,-2.3629,-2.3654,-2.3624,-2.3616,-2.3617,-2.3627,-2.371,-2.3735,-2.3789,-2.3678,-2.3679,-2.368,0,-2.3923,-2.3907,-2.392,-2.3884,-2.3881,-2.3884,-2.3865,-2.3859,-2.3833,-2.3814,-2.38,-2.3766,-2.3767,-2.3731,-2.3732,-2.3713,-2.3707,-2.3692,-2.3693,-2.3692,-2.3653,-2.3713,-2.3805,-2.3814,-2.369,-2.3689,-2.3689,0,-2.3999,-2.398,-2.3986,-2.3976,-2.3933,-2.3937,-2.3919,-2.3892,-2.3884,-2.3867,-2.3861,-2.3845,-2.3836,-2.3824,-2.3787,-2.3763,-2.3793,-2.3753,-2.3779,-2.378,-2.3788,-2.3788,-2.3882,-2.3782,-2.3782,-2.3782,-2.3782,0,-2.4066,-2.4077,-2.402,-2.4024,-2.4035,-2.399,-2.4002,-2.3979,-2.3955,-2.3954,-2.3909,-2.3909,-2.3859,-2.3853,-2.3824,-2.383,-2.3826,-2.3812,-2.3804,-2.3817,-2.3819,-2.3813,-2.3809,-2.3784,-2.3784,-2.3783,-2.3783,0,-2.4153,-2.4116,-2.4119,-2.4079,-2.4069,-2.4079,-2.4044,-2.4046,-2.4018,-2.4017,-2.4015,-2.3972,-2.3963,-2.3924,-2.3905,-2.3886,-2.3903,-2.3886,-2.3912,-2.3907,-2.3935,-2.3934,-2.403,-2.4041,-2.3933,-2.3934,-2.3935,0,-2.4199,-2.4206,-2.4167,-2.4163,-2.4147,-2.4141,-2.4133,-2.4089,-2.4083,-2.4054,-2.406,-2.4048,-2.4036,-2.4024,-2.3991,-2.3978,-2.3961,-2.3996,-2.3959,-2.3972,-2.3964,-2.3964,-2.3966,-2.4005,-2.4006,-2.4007,-2.4008,0,-2.4285,-2.4266,-2.4256,-2.424,-2.4232,-2.4217,-2.42,-2.4199,-2.415,-2.4145,-2.4136,-2.4127,-2.4108,-2.4097,-2.4078,-2.4059,-2.4026,-2.402,-2.4025,-2.4039,-2.4054,-2.4048,-2.3935,-2.4018,-2.4017,-2.4016,-2.4016,-2.4015,-2.4354,-2.4358,-2.4331,-2.4322,-2.4304,-2.4289,-2.429,-2.4262,-2.4254,-2.4236,-2.421,-2.4205,-2.4179,-2.415,-2.4134,-2.413,-2.4111,-2.4118,-2.412,-2.4123,-2.413,-2.4054,-2.4126,-2.4125,-2.4125,-2.4125,-2.4125,0,-2.4438,-2.4419,-2.4411,-2.4388,-2.4381,-2.435,-2.4329,-2.4325,-2.4321,-2.43,-2.4289,-2.4279,-2.4268,-2.4235,-2.4221,-2.4223,-2.4208,-2.4221,-2.4221,-2.4218,-2.4147,-2.4145,-2.4234,-2.4234,-2.4234,-2.4234,-2.4234,-2.4234,-2.4482,-2.4488,-2.4467,-2.4464,-2.4444,-2.4439,-2.443,-2.4416,-2.4399,-2.439,-2.4381,-2.4359,-2.4333,-2.4317,-2.4306,-2.4296,-2.4294,-2.4313,-2.4298,-2.4233,-2.4223,-2.4213,-2.421,-2.4312,-2.4312,-2.4369,-2.437,-2.437]},{"header":{"parameterUnit":"m.s-1","parameterCategory":1,"la1":30.2991,"la2":30.254,"lo1":-89.0895,"lo2":-89.0444,"dy":0.0017,"dx":0.0017,"nx":28,"ny":28,"refTime":"2024-06-13T03:00:00:Z","depth":0,"parameterNumber":3,"parameterNumberName":"V-component_of_WINDS"},"data":[0,0,0,0,0,0,0,0,0,0,0,0,0,0,0,0,0,0,0,0,0,0,0,0,0,0,0,0,0,0,0,0,0,0,0,0,0,0,0,0,0,0,0,0,0,0,0,0,0,0,0,0,0,0,0,0,0,0,-2.4953,-2.4954,0,-2.5025,-2.5025,-2.5026,-2.5041,-2.5041,-2.504,-2.504,-2.5109,-2.5112,-2.5114,0,0,0,0,0,0,0,0,0,0,0,0,0,-2.4827,-2.4829,-2.4953,-2.4954,-2.4955,-2.5024,-2.5025,-2.5026,-2.5041,-2.5041,-2.504,-2.5039,-2.5108,-2.5111,-2.5114,0,0,0,0,0,0,0,0,0,0,0,0,0,-2.4888,-2.483,-2.4953,-2.4971,-2.4973,-2.5024,-2.5025,-2.5027,-2.5041,-2.5041,-2.504,-2.5039,-2.5108,-2.5111,-2.5114,-2.5152,0,0,-2.5125,-2.5127,0,0,0,0,0,0,0,0,-2.4885,-2.4893,-2.4967,-2.497,-2.4973,-2.5023,-2.5006,-2.5068,-2.5042,-2.5015,-2.504,-2.5039,-2.5081,-2.5087,-2.5102,-2.5155,-2.5158,-2.5125,-2.5128,-2.5129,-2.513,0,0,0,0,0,0,0,-2.4881,-2.489,-2.4981,-2.4969,-2.4972,-2.4974,-2.4982,-2.5018,-2.5052,-2.5018,-2.5019,-2.5027,-2.5082,-2.5098,-2.5103,-2.5159,-2.5125,-2.5128,-2.5131,-2.5132,-2.5247,-2.5247,0,0,0,0,0,0,-2.4874,-2.4886,-2.4979,-2.4984,-2.4926,-2.4977,-2.4986,-2.5008,-2.5051,-2.5057,-2.5028,-2.5028,-2.5093,-2.5099,-2.5106,-2.5153,-2.5129,-2.5132,-2.5134,-2.5246,-2.5247,-2.5248,0,0,0,0,0,0,-2.4871,-2.4882,-2.4976,-2.4935,-2.4948,-2.498,-2.5004,-2.501,-2.5026,-2.5059,-2.5065,-2.5038,-2.5092,-2.5101,-2.514,-2.5156,-2.5134,-2.5137,-2.5245,-2.5246,-2.5247,-2.5247,0,0,0,0,0,0,-2.4867,-2.4881,-2.4896,-2.4936,-2.495,-2.5011,-2.5005,-2.5011,-2.5032,-2.5032,-2.507,-2.5076,-2.5092,-2.5135,-2.5144,-2.516,-2.514,-2.5243,-2.5245,-2.5247,-2.5246,-2.5249,-2.5251,0,0,0,0,0,-2.4863,-2.4892,-2.4897,-2.4908,-2.497,-2.5012,-2.502,-2.5039,-2.5033,-2.5048,-2.507,-2.5075,-2.5152,-2.5139,-2.5149,-2.5167,-2.5242,-2.5245,-2.5247,-2.5245,-2.5248,-2.5251,0,0,0,0,0,0,-2.4852,-2.4898,-2.4903,-2.4947,-2.4975,-2.5014,-2.5034,-2.5041,-2.5071,-2.507,-2.5092,-2.51,-2.5138,-2.5156,-2.5141,-2.5205,-2.5197,-2.5201,-2.5192,-2.5196,-2.5198,-2.5193,-2.5143,0,0,0,0,0,-2.4855,-2.4887,-2.4924,-2.4959,-2.4973,-2.5001,-2.502,-2.5032,-2.5062,-2.5074,-2.5099,-2.5127,-2.5157,-2.5177,-2.5207,-2.5248,-2.5257,-2.5265,-2.5267,-2.5269,-2.5273,-2.5297,-2.5301,-2.5255,-2.5255,-2.5255,0,0,-2.4861,-2.489,-2.4909,-2.4958,-2.4981,-2.5013,-2.5011,-2.5044,-2.5067,-2.5079,-2.5119,-2.5137,-2.517,-2.521,-2.5229,-2.5226,-2.5287,-2.5272,-2.5273,-2.5276,-2.5299,-2.5304,-2.5308,-2.5256,-2.5256,-2.5256,0,0,-2.4889,-2.4914,-2.4946,-2.497,-2.5006,-2.5025,-2.5032,-2.507,-2.5083,-2.5124,-2.5133,-2.516,-2.5213,-2.5236,-2.5254,-2.5291,-2.5296,-2.5299,-2.5312,-2.5335,-2.5338,-2.5342,-2.5356,-2.536,-2.5303,-2.5303,-2.5303,0,-2.4892,-2.4941,-2.4961,-2.4995,-2.5016,-2.5029,-2.5061,-2.5083,-2.5126,-2.5141,-2.5136,-2.5203,-2.5226,-2.5273,-2.5281,-2.5296,-2.5305,-2.5296,-2.5336,-2.534,-2.5343,-2.5357,-2.5362,-2.5303,-2.5303,-2.5303,-2.5303,0,-2.4943,-2.4977,-2.4998,-2.5042,-2.5065,-2.5098,-2.5122,-2.5143,-2.5153,-2.5172,-2.5212,-2.524,-2.5276,-2.5288,-2.5297,-2.5336,-2.5333,-2.5332,-2.5325,-2.5348,-2.5361,-2.5366,-2.5303,-2.5303,-2.5303,-2.5303,0,0,-2.4968,-2.5022,-2.503,-2.505,-2.5091,-2.5117,-2.5149,-2.5186,-2.5204,-2.5233,-2.5261,-2.5305,-2.5305,-2.5326,-2.5338,-2.5358,-2.5386,-2.5355,-2.5356,-2.5361,-2.5431,-2.5433,-2.5438,-2.5389,-2.539,-2.5391,-2.5429,0,-2.5002,-2.5062,-2.5082,-2.5132,-2.5163,-2.5175,-2.5204,-2.5231,-2.5249,-2.5277,-2.5296,-2.5328,-2.5324,-2.5337,-2.5357,-2.5378,-2.5401,-2.5376,-2.5416,-2.5417,-2.5409,-2.5445,-2.5447,-2.5481,-2.5434,-2.5435,-2.5435,0,-2.505,-2.5081,-2.5135,-2.5173,-2.5186,-2.5212,-2.5247,-2.5274,-2.5305,-2.5316,-2.534,-2.5351,-2.5384,-2.5374,-2.5421,-2.5403,-2.542,-2.5433,-2.5435,-2.544,-2.5429,-2.5453,-2.5492,-2.5498,-2.5443,-2.5443,-2.5442,0,-2.5064,-2.5119,-2.5159,-2.5176,-2.522,-2.5238,-2.5256,-2.5287,-2.5308,-2.5338,-2.5352,-2.5385,-2.5403,-2.5428,-2.5447,-2.5438,-2.5492,-2.5483,-2.5503,-2.5503,-2.5515,-2.5515,-2.5559,-2.5524,-2.5524,-2.5524,-2.5524,0,-2.51,-2.5133,-2.5166,-2.5191,-2.5228,-2.5248,-2.5284,-2.5303,-2.533,-2.5358,-2.5369,-2.5395,-2.5418,-2.5446,-2.5461,-2.5498,-2.5505,-2.5515,-2.5519,-2.5515,-2.5514,-2.5528,-2.5527,-2.5525,-2.5525,-2.5524,-2.5524,0,-2.5123,-2.5147,-2.5191,-2.5229,-2.524,-2.5265,-2.5297,-2.5321,-2.5339,-2.5374,-2.5384,-2.5411,-2.5446,-2.5467,-2.5509,-2.5519,-2.556,-2.5562,-2.555,-2.5552,-2.5571,-2.557,-2.5628,-2.5637,-2.5594,-2.5594,-2.5594,0,-2.5146,-2.5172,-2.5213,-2.5233,-2.5253,-2.5285,-2.5307,-2.5327,-2.5349,-2.5387,-2.5406,-2.5441,-2.547,-2.5524,-2.5547,-2.558,-2.5584,-2.5602,-2.5589,-2.5585,-2.5586,-2.5585,-2.5588,-2.5605,-2.5605,-2.5605,-2.5605,0,-2.5184,-2.5195,-2.5226,-2.5262,-2.5288,-2.5317,-2.5346,-2.5361,-2.5387,-2.541,-2.5446,-2.5469,-2.5513,-2.5548,-2.5583,-2.5601,-2.5608,-2.5609,-2.5616,-2.5613,-2.5606,-2.5611,-2.5558,-2.5608,-2.5608,-2.5608,-2.5608,-2.5607,-2.5209,-2.5232,-2.5266,-2.53,-2.5324,-2.5351,-2.5376,-2.5397,-2.5428,-2.5466,-2.5476,-2.5513,-2.5543,-2.5591,-2.561,-2.5639,-2.5636,-2.5646,-2.5648,-2.565,-2.5652,-2.56,-2.5645,-2.5645,-2.5645,-2.5645,-2.5645,0,-2.5249,-2.5271,-2.5302,-2.5343,-2.537,-2.5375,-2.5406,-2.5429,-2.5462,-2.549,-2.5519,-2.556,-2.5593,-2.562,-2.5654,-2.5672,-2.5676,-2.5681,-2.568,-2.5684,-2.5651,-2.5643,-2.5677,-2.5677,-2.5677,-2.5677,-2.5677,-2.5677,-2.5273,-2.5314,-2.5328,-2.538,-2.5402,-2.544,-2.5458,-2.5482,-2.5505,-2.555,-2.5579,-2.5596,-2.5623,-2.5659,-2.569,-2.5697,-2.5709,-2.5714,-2.5721,-2.569,-2.5687,-2.5683,-2.5676,-2.5716,-2.5716,-2.5752,-2.5752,-2.5752]}]]